Year,Month,Day,Hour,Minute,Value (Times are PST for temperature in C)
2021,04,18,00,00,12.20
2021,04,18,00,01,12.20
2021,04,18,00,02,12.30
2021,04,18,00,03,12.30
2021,04,18,00,04,12.30
2021,04,18,00,05,12.20
2021,04,18,00,06,12.20
2021,04,18,00,07,12.20
2021,04,18,00,08,12.10
2021,04,18,00,09,12.10
2021,04,18,00,10,12.00
2021,04,18,00,11,12.00
2021,04,18,00,12,11.90
2021,04,18,00,13,11.90
2021,04,18,00,14,11.90
2021,04,18,00,15,11.80
2021,04,18,00,16,11.80
2021,04,18,00,17,11.80
2021,04,18,00,18,11.80
2021,04,18,00,19,11.80
2021,04,18,00,20,11.80
2021,04,18,00,21,11.80
2021,04,18,00,22,11.80
2021,04,18,00,23,11.80
2021,04,18,00,24,11.80
2021,04,18,00,25,11.90
2021,04,18,00,26,11.90
2021,04,18,00,27,11.90
2021,04,18,00,28,11.90
2021,04,18,00,29,11.90
2021,04,18,00,30,11.90
2021,04,18,00,31,11.90
2021,04,18,00,32,11.90
2021,04,18,00,33,12.00
2021,04,18,00,34,12.00
2021,04,18,00,35,12.00
2021,04,18,00,36,12.00
2021,04,18,00,37,12.00
2021,04,18,00,38,12.00
2021,04,18,00,39,12.00
2021,04,18,00,40,12.00
2021,04,18,00,41,12.10
2021,04,18,00,42,12.10
2021,04,18,00,43,12.10
2021,04,18,00,44,12.10
2021,04,18,00,45,12.10
2021,04,18,00,46,12.10
2021,04,18,00,47,12.10
2021,04,18,00,48,12.10
2021,04,18,00,49,12.10
2021,04,18,00,50,12.10
2021,04,18,00,51,12.10
2021,04,18,00,52,12.10
2021,04,18,00,53,12.10
2021,04,18,00,54,12.10
2021,04,18,00,55,12.10
2021,04,18,00,56,12.00
2021,04,18,00,57,12.00
2021,04,18,00,58,12.00
2021,04,18,00,59,11.90
2021,04,18,01,00,11.90
2021,04,18,01,01,11.90
2021,04,18,01,02,11.80
2021,04,18,01,03,11.80
2021,04,18,01,04,11.80
2021,04,18,01,05,11.70
2021,04,18,01,06,11.70
2021,04,18,01,07,11.70
2021,04,18,01,08,11.60
2021,04,18,01,09,11.60
2021,04,18,01,10,11.60
2021,04,18,01,11,11.70
2021,04,18,01,12,11.70
2021,04,18,01,13,11.60
2021,04,18,01,14,11.60
2021,04,18,01,15,11.60
2021,04,18,01,16,11.70
2021,04,18,01,17,11.80
2021,04,18,01,18,11.80
2021,04,18,01,19,11.80
2021,04,18,01,20,11.80
2021,04,18,01,21,11.80
2021,04,18,01,22,11.80
2021,04,18,01,23,11.80
2021,04,18,01,24,11.80
2021,04,18,01,25,11.80
2021,04,18,01,26,11.80
2021,04,18,01,27,11.70
2021,04,18,01,28,11.70
2021,04,18,01,29,11.70
2021,04,18,01,30,11.70
2021,04,18,01,31,11.70
2021,04,18,01,32,11.70
2021,04,18,01,33,11.70
2021,04,18,01,34,11.60
2021,04,18,01,35,11.60
2021,04,18,01,36,11.60
2021,04,18,01,37,11.60
2021,04,18,01,38,11.60
2021,04,18,01,39,11.50
2021,04,18,01,40,11.50
2021,04,18,01,41,11.40
2021,04,18,01,42,11.40
2021,04,18,01,43,11.30
2021,04,18,01,44,11.30
2021,04,18,01,45,11.30
2021,04,18,01,46,11.20
2021,04,18,01,47,11.20
2021,04,18,01,48,11.10
2021,04,18,01,49,11.10
2021,04,18,01,50,11.10
2021,04,18,01,51,11.10
2021,04,18,01,52,11.10
2021,04,18,01,53,11.10
2021,04,18,01,54,11.10
2021,04,18,01,55,11.00
2021,04,18,01,56,11.00
2021,04,18,01,57,11.00
2021,04,18,01,58,11.00
2021,04,18,01,59,11.00
2021,04,18,02,00,11.00
2021,04,18,02,01,11.10
2021,04,18,02,02,11.10
2021,04,18,02,03,11.20
2021,04,18,02,04,11.20
2021,04,18,02,05,11.20
2021,04,18,02,06,11.20
2021,04,18,02,07,11.30
2021,04,18,02,08,11.30
2021,04,18,02,09,11.30
2021,04,18,02,10,11.30
2021,04,18,02,11,11.40
2021,04,18,02,12,11.40
2021,04,18,02,13,11.40
2021,04,18,02,14,11.40
2021,04,18,02,15,11.30
2021,04,18,02,16,11.30
2021,04,18,02,17,11.30
2021,04,18,02,18,11.20
2021,04,18,02,19,11.20
2021,04,18,02,20,11.20
2021,04,18,02,21,11.10
2021,04,18,02,22,11.10
2021,04,18,02,23,11.10
2021,04,18,02,24,11.00
2021,04,18,02,25,11.00
2021,04,18,02,26,11.00
2021,04,18,02,27,11.00
2021,04,18,02,28,10.90
2021,04,18,02,29,10.90
2021,04,18,02,30,10.90
2021,04,18,02,31,10.80
2021,04,18,02,32,10.80
2021,04,18,02,33,10.80
2021,04,18,02,34,10.80
2021,04,18,02,35,10.80
2021,04,18,02,36,10.80
2021,04,18,02,37,10.90
2021,04,18,02,38,10.90
2021,04,18,02,39,11.00
2021,04,18,02,40,11.00
2021,04,18,02,41,11.00
2021,04,18,02,42,11.00
2021,04,18,02,43,10.90
2021,04,18,02,44,10.90
2021,04,18,02,45,10.80
2021,04,18,02,46,10.80
2021,04,18,02,47,10.80
2021,04,18,02,48,10.80
2021,04,18,02,49,10.80
2021,04,18,02,50,10.80
2021,04,18,02,51,10.80
2021,04,18,02,52,10.80
2021,04,18,02,53,10.80
2021,04,18,02,54,10.80
2021,04,18,02,55,10.80
2021,04,18,02,56,10.80
2021,04,18,02,57,10.80
2021,04,18,02,58,10.80
2021,04,18,02,59,10.70
2021,04,18,03,00,10.70
2021,04,18,03,01,10.70
2021,04,18,03,02,10.70
2021,04,18,03,03,10.70
2021,04,18,03,04,10.70
2021,04,18,03,05,10.70
2021,04,18,03,06,10.70
2021,04,18,03,07,10.70
2021,04,18,03,08,10.70
2021,04,18,03,09,10.80
2021,04,18,03,10,10.80
2021,04,18,03,11,10.80
2021,04,18,03,12,10.90
2021,04,18,03,13,10.90
2021,04,18,03,14,10.90
2021,04,18,03,15,11.00
2021,04,18,03,16,11.00
2021,04,18,03,17,11.00
2021,04,18,03,18,11.00
2021,04,18,03,19,11.00
2021,04,18,03,20,11.00
2021,04,18,03,21,11.00
2021,04,18,03,22,11.10
2021,04,18,03,23,11.10
2021,04,18,03,24,11.10
2021,04,18,03,25,11.10
2021,04,18,03,26,11.20
2021,04,18,03,27,11.20
2021,04,18,03,28,11.20
2021,04,18,03,29,11.20
2021,04,18,03,30,11.20
2021,04,18,03,31,11.10
2021,04,18,03,32,11.10
2021,04,18,03,33,11.10
2021,04,18,03,34,11.10
2021,04,18,03,35,11.00
2021,04,18,03,36,11.00
2021,04,18,03,37,11.00
2021,04,18,03,38,11.00
2021,04,18,03,39,11.00
2021,04,18,03,40,11.00
2021,04,18,03,41,11.00
2021,04,18,03,42,11.00
2021,04,18,03,43,11.00
2021,04,18,03,44,10.90
2021,04,18,03,45,10.90
2021,04,18,03,46,10.90
2021,04,18,03,47,11.00
2021,04,18,03,48,11.00
2021,04,18,03,49,11.00
2021,04,18,03,50,11.00
2021,04,18,03,51,10.90
2021,04,18,03,52,10.90
2021,04,18,03,53,10.90
2021,04,18,03,54,10.80
2021,04,18,03,55,10.80
2021,04,18,03,56,10.70
2021,04,18,03,57,10.70
2021,04,18,03,58,10.60
2021,04,18,03,59,10.60
2021,04,18,04,00,10.50
2021,04,18,04,01,10.50
2021,04,18,04,02,10.50
2021,04,18,04,03,10.50
2021,04,18,04,04,10.60
2021,04,18,04,05,10.60
2021,04,18,04,06,10.60
2021,04,18,04,07,10.60
2021,04,18,04,08,10.50
2021,04,18,04,09,10.50
2021,04,18,04,10,10.50
2021,04,18,04,11,10.40
2021,04,18,04,12,10.50
2021,04,18,04,13,10.60
2021,04,18,04,14,10.60
2021,04,18,04,15,10.60
2021,04,18,04,16,10.60
2021,04,18,04,17,10.60
2021,04,18,04,18,10.60
2021,04,18,04,19,10.50
2021,04,18,04,20,10.50
2021,04,18,04,21,10.50
2021,04,18,04,22,10.40
2021,04,18,04,23,10.40
2021,04,18,04,24,10.40
2021,04,18,04,25,10.30
2021,04,18,04,26,10.30
2021,04,18,04,27,10.20
2021,04,18,04,28,10.10
2021,04,18,04,29,10.10
2021,04,18,04,30,10.00
2021,04,18,04,31,10.00
2021,04,18,04,32,9.90
2021,04,18,04,33,9.80
2021,04,18,04,34,9.80
2021,04,18,04,35,9.70
2021,04,18,04,36,9.70
2021,04,18,04,37,9.70
2021,04,18,04,38,9.60
2021,04,18,04,39,9.60
2021,04,18,04,40,9.60
2021,04,18,04,41,9.60
2021,04,18,04,42,9.60
2021,04,18,04,43,9.60
2021,04,18,04,44,9.60
2021,04,18,04,45,9.50
2021,04,18,04,46,9.50
2021,04,18,04,47,9.50
2021,04,18,04,48,9.50
2021,04,18,04,49,9.50
2021,04,18,04,50,9.60
2021,04,18,04,51,9.60
2021,04,18,04,52,9.70
2021,04,18,04,53,9.80
2021,04,18,04,54,9.90
2021,04,18,04,55,9.80
2021,04,18,04,56,9.90
2021,04,18,04,57,9.90
2021,04,18,04,58,10.00
2021,04,18,04,59,10.00
2021,04,18,05,00,10.00
2021,04,18,05,01,10.00
2021,04,18,05,02,10.00
2021,04,18,05,03,10.00
2021,04,18,05,04,10.10
2021,04,18,05,05,10.10
2021,04,18,05,06,10.20
2021,04,18,05,07,10.20
2021,04,18,05,08,10.20
2021,04,18,05,09,10.20
2021,04,18,05,10,10.20
2021,04,18,05,11,10.20
2021,04,18,05,12,10.20
2021,04,18,05,13,10.20
2021,04,18,05,14,10.20
2021,04,18,05,15,10.10
2021,04,18,05,16,10.10
2021,04,18,05,17,10.00
2021,04,18,05,18,9.90
2021,04,18,05,19,9.90
2021,04,18,05,20,9.90
2021,04,18,05,21,9.90
2021,04,18,05,22,9.90
2021,04,18,05,23,9.90
2021,04,18,05,24,9.90
2021,04,18,05,25,9.80
2021,04,18,05,26,9.80
2021,04,18,05,27,9.80
2021,04,18,05,28,9.80
2021,04,18,05,29,9.90
2021,04,18,05,30,9.90
2021,04,18,05,31,9.90
2021,04,18,05,32,9.90
2021,04,18,05,33,9.90
2021,04,18,05,34,9.90
2021,04,18,05,35,10.00
2021,04,18,05,36,10.00
2021,04,18,05,37,10.00
2021,04,18,05,38,10.00
2021,04,18,05,39,10.00
2021,04,18,05,40,10.00
2021,04,18,05,41,10.00
2021,04,18,05,42,10.10
2021,04,18,05,43,10.10
2021,04,18,05,44,10.10
2021,04,18,05,45,10.00
2021,04,18,05,46,10.00
2021,04,18,05,47,10.00
2021,04,18,05,48,10.10
2021,04,18,05,49,10.10
2021,04,18,05,50,10.10
2021,04,18,05,51,10.10
2021,04,18,05,52,10.10
2021,04,18,05,53,10.20
2021,04,18,05,54,10.20
2021,04,18,05,55,10.10
2021,04,18,05,56,10.10
2021,04,18,05,57,10.10
2021,04,18,05,58,10.10
2021,04,18,05,59,10.00
2021,04,18,06,00,10.00
2021,04,18,06,01,10.00
2021,04,18,06,02,10.00
2021,04,18,06,03,9.90
2021,04,18,06,04,9.90
2021,04,18,06,05,9.90
2021,04,18,06,06,9.80
2021,04,18,06,07,9.80
2021,04,18,06,08,9.70
2021,04,18,06,09,9.70
2021,04,18,06,10,9.60
2021,04,18,06,11,9.60
2021,04,18,06,12,9.50
2021,04,18,06,13,9.50
2021,04,18,06,14,9.40
2021,04,18,06,15,9.40
2021,04,18,06,16,9.40
2021,04,18,06,17,9.30
2021,04,18,06,18,9.30
2021,04,18,06,19,9.30
2021,04,18,06,20,9.30
2021,04,18,06,21,9.30
2021,04,18,06,22,9.20
2021,04,18,06,23,9.20
2021,04,18,06,24,9.10
2021,04,18,06,25,9.10
2021,04,18,06,26,9.10
2021,04,18,06,27,9.10
2021,04,18,06,28,9.10
2021,04,18,06,29,9.10
2021,04,18,06,30,9.10
2021,04,18,06,31,9.20
2021,04,18,06,32,9.20
2021,04,18,06,33,9.20
2021,04,18,06,34,9.20
2021,04,18,06,35,9.20
2021,04,18,06,36,9.20
2021,04,18,06,37,9.10
2021,04,18,06,38,9.10
2021,04,18,06,39,9.20
2021,04,18,06,40,9.20
2021,04,18,06,41,9.20
2021,04,18,06,42,9.20
2021,04,18,06,43,9.20
2021,04,18,06,44,9.30
2021,04,18,06,45,9.30
2021,04,18,06,46,9.30
2021,04,18,06,47,9.30
2021,04,18,06,48,9.30
2021,04,18,06,49,9.30
2021,04,18,06,50,9.30
2021,04,18,06,51,9.30
2021,04,18,06,52,9.30
2021,04,18,06,53,9.30
2021,04,18,06,54,9.30
2021,04,18,06,55,9.20
2021,04,18,06,56,9.20
2021,04,18,06,57,9.20
2021,04,18,06,58,9.20
2021,04,18,06,59,9.20
2021,04,18,07,00,9.20
2021,04,18,07,01,9.30
2021,04,18,07,02,9.30
2021,04,18,07,03,9.40
2021,04,18,07,04,9.40
2021,04,18,07,05,9.50
2021,04,18,07,06,9.50
2021,04,18,07,07,9.60
2021,04,18,07,08,9.60
2021,04,18,07,09,9.70
2021,04,18,07,10,9.70
2021,04,18,07,11,9.80
2021,04,18,07,12,9.80
2021,04,18,07,13,9.90
2021,04,18,07,14,10.00
2021,04,18,07,15,10.00
2021,04,18,07,16,10.10
2021,04,18,07,17,10.10
2021,04,18,07,18,10.20
2021,04,18,07,19,10.30
2021,04,18,07,20,10.40
2021,04,18,07,21,10.40
2021,04,18,07,22,10.40
2021,04,18,07,23,10.40
2021,04,18,07,24,10.50
2021,04,18,07,25,10.50
2021,04,18,07,26,10.60
2021,04,18,07,27,10.60
2021,04,18,07,28,10.70
2021,04,18,07,29,10.70
2021,04,18,07,30,10.70
2021,04,18,07,31,10.80
2021,04,18,07,32,10.90
2021,04,18,07,33,10.90
2021,04,18,07,34,11.00
2021,04,18,07,35,11.10
2021,04,18,07,36,11.20
2021,04,18,07,37,11.20
2021,04,18,07,38,11.20
2021,04,18,07,39,11.30
2021,04,18,07,40,11.30
2021,04,18,07,41,11.40
2021,04,18,07,42,11.50
2021,04,18,07,43,11.50
2021,04,18,07,44,11.60
2021,04,18,07,45,11.80
2021,04,18,07,46,11.90
2021,04,18,07,47,12.10
2021,04,18,07,48,12.20
2021,04,18,07,49,12.30
2021,04,18,07,50,12.40
2021,04,18,07,51,12.50
2021,04,18,07,52,12.60
2021,04,18,07,53,12.80
2021,04,18,07,54,12.90
2021,04,18,07,55,13.10
2021,04,18,07,56,13.20
2021,04,18,07,57,13.30
2021,04,18,07,58,13.50
2021,04,18,07,59,13.70
2021,04,18,08,00,13.90
2021,04,18,08,01,14.00
2021,04,18,08,02,14.10
2021,04,18,08,03,14.10
2021,04,18,08,04,14.10
2021,04,18,08,05,14.10
2021,04,18,08,06,14.10
2021,04,18,08,07,14.00
2021,04,18,08,08,14.00
2021,04,18,08,09,13.90
2021,04,18,08,10,13.80
2021,04,18,08,11,13.70
2021,04,18,08,12,13.70
2021,04,18,08,13,13.70
2021,04,18,08,14,13.70
2021,04,18,08,15,13.70
2021,04,18,08,16,13.70
2021,04,18,08,17,13.70
2021,04,18,08,18,13.70
2021,04,18,08,19,13.80
2021,04,18,08,20,13.80
2021,04,18,08,21,13.80
2021,04,18,08,22,13.80
2021,04,18,08,23,13.80
2021,04,18,08,24,13.80
2021,04,18,08,25,13.70
2021,04,18,08,26,13.70
2021,04,18,08,27,13.70
2021,04,18,08,28,13.70
2021,04,18,08,29,13.70
2021,04,18,08,30,13.60
2021,04,18,08,31,13.70
2021,04,18,08,32,13.70
2021,04,18,08,33,13.70
2021,04,18,08,34,13.80
2021,04,18,08,35,13.90
2021,04,18,08,36,13.90
2021,04,18,08,37,14.00
2021,04,18,08,38,14.10
2021,04,18,08,39,14.10
2021,04,18,08,40,14.20
2021,04,18,08,41,14.30
2021,04,18,08,42,14.30
2021,04,18,08,43,14.30
2021,04,18,08,44,14.30
2021,04,18,08,45,14.40
2021,04,18,08,46,14.50
2021,04,18,08,47,14.60
2021,04,18,08,48,14.60
2021,04,18,08,49,14.70
2021,04,18,08,50,14.70
2021,04,18,08,51,14.80
2021,04,18,08,52,14.80
2021,04,18,08,53,14.90
2021,04,18,08,54,14.90
2021,04,18,08,55,15.00
2021,04,18,08,56,15.10
2021,04,18,08,57,15.10
2021,04,18,08,58,15.10
2021,04,18,08,59,15.10
2021,04,18,09,00,15.10
2021,04,18,09,01,15.10
2021,04,18,09,02,15.20
2021,04,18,09,03,15.10
2021,04,18,09,04,15.10
2021,04,18,09,05,15.10
2021,04,18,09,06,15.10
2021,04,18,09,07,15.20
2021,04,18,09,08,15.20
2021,04,18,09,09,15.30
2021,04,18,09,10,15.30
2021,04,18,09,11,15.30
2021,04,18,09,12,15.40
2021,04,18,09,13,15.40
2021,04,18,09,14,15.40
2021,04,18,09,15,15.50
2021,04,18,09,16,15.50
2021,04,18,09,17,15.60
2021,04,18,09,18,15.60
2021,04,18,09,19,15.70
2021,04,18,09,20,15.70
2021,04,18,09,21,15.70
2021,04,18,09,22,15.80
2021,04,18,09,23,15.80
2021,04,18,09,24,15.90
2021,04,18,09,25,15.90
2021,04,18,09,26,15.90
2021,04,18,09,27,16.00
2021,04,18,09,28,16.00
2021,04,18,09,29,16.00
2021,04,18,09,30,16.00
2021,04,18,09,31,16.10
2021,04,18,09,32,16.10
2021,04,18,09,33,16.20
2021,04,18,09,34,16.10
2021,04,18,09,35,16.10
2021,04,18,09,36,16.20
2021,04,18,09,37,16.20
2021,04,18,09,38,16.10
2021,04,18,09,39,16.10
2021,04,18,09,40,16.10
2021,04,18,09,41,16.20
2021,04,18,09,42,16.40
2021,04,18,09,43,16.50
2021,04,18,09,44,16.50
2021,04,18,09,45,16.60
2021,04,18,09,46,16.70
2021,04,18,09,47,16.70
2021,04,18,09,48,16.70
2021,04,18,09,49,16.60
2021,04,18,09,50,16.60
2021,04,18,09,51,16.60
2021,04,18,09,52,16.60
2021,04,18,09,53,16.60
2021,04,18,09,54,16.60
2021,04,18,09,55,16.70
2021,04,18,09,56,16.80
2021,04,18,09,57,16.80
2021,04,18,09,58,16.80
2021,04,18,09,59,16.70
2021,04,18,10,00,16.70
2021,04,18,10,01,16.70
2021,04,18,10,02,16.70
2021,04,18,10,03,16.70
2021,04,18,10,04,16.90
2021,04,18,10,05,17.00
2021,04,18,10,06,17.10
2021,04,18,10,07,17.10
2021,04,18,10,08,17.20
2021,04,18,10,09,17.20
2021,04,18,10,10,17.20
2021,04,18,10,11,17.20
2021,04,18,10,12,17.20
2021,04,18,10,13,17.10
2021,04,18,10,14,17.10
2021,04,18,10,15,17.10
2021,04,18,10,16,17.10
2021,04,18,10,17,17.10
2021,04,18,10,18,17.00
2021,04,18,10,19,17.00
2021,04,18,10,20,16.90
2021,04,18,10,21,16.90
2021,04,18,10,22,16.90
2021,04,18,10,23,16.90
2021,04,18,10,24,16.80
2021,04,18,10,25,16.80
2021,04,18,10,26,16.80
2021,04,18,10,27,16.80
2021,04,18,10,28,16.90
2021,04,18,10,29,16.90
2021,04,18,10,30,17.00
2021,04,18,10,31,17.00
2021,04,18,10,32,17.00
2021,04,18,10,33,17.00
2021,04,18,10,34,16.90
2021,04,18,10,35,16.90
2021,04,18,10,36,16.80
2021,04,18,10,37,16.80
2021,04,18,10,38,16.70
2021,04,18,10,39,16.60
2021,04,18,10,40,16.60
2021,04,18,10,41,16.70
2021,04,18,10,42,16.80
2021,04,18,10,43,16.80
2021,04,18,10,44,16.80
2021,04,18,10,45,16.70
2021,04,18,10,46,16.80
2021,04,18,10,47,16.80
2021,04,18,10,48,16.90
2021,04,18,10,49,16.90
2021,04,18,10,50,16.90
2021,04,18,10,51,17.00
2021,04,18,10,52,17.00
2021,04,18,10,53,17.10
2021,04,18,10,54,17.20
2021,04,18,10,55,17.30
2021,04,18,10,56,17.40
2021,04,18,10,57,17.50
2021,04,18,10,58,17.50
2021,04,18,10,59,17.30
2021,04,18,11,00,17.20
2021,04,18,11,01,17.10
2021,04,18,11,02,17.00
2021,04,18,11,03,17.00
2021,04,18,11,04,17.10
2021,04,18,11,05,17.10
2021,04,18,11,06,17.10
2021,04,18,11,07,17.30
2021,04,18,11,08,17.30
2021,04,18,11,09,17.30
2021,04,18,11,10,17.30
2021,04,18,11,11,17.30
2021,04,18,11,12,17.40
2021,04,18,11,13,17.30
2021,04,18,11,14,17.30
2021,04,18,11,15,17.20
2021,04,18,11,16,17.20
2021,04,18,11,17,17.20
2021,04,18,11,18,17.20
2021,04,18,11,19,17.30
2021,04,18,11,20,17.30
2021,04,18,11,21,17.40
2021,04,18,11,22,17.50
2021,04,18,11,23,17.60
2021,04,18,11,24,17.70
2021,04,18,11,25,17.70
2021,04,18,11,26,17.70
2021,04,18,11,27,17.60
2021,04,18,11,28,17.60
2021,04,18,11,29,17.60
2021,04,18,11,30,17.60
2021,04,18,11,31,17.70
2021,04,18,11,32,17.60
2021,04,18,11,33,17.60
2021,04,18,11,34,17.70
2021,04,18,11,35,17.70
2021,04,18,11,36,17.90
2021,04,18,11,37,18.10
2021,04,18,11,38,18.30
2021,04,18,11,39,18.40
2021,04,18,11,40,18.60
2021,04,18,11,41,18.60
2021,04,18,11,42,18.70
2021,04,18,11,43,18.90
2021,04,18,11,44,18.90
2021,04,18,11,45,19.00
2021,04,18,11,46,18.90
2021,04,18,11,47,18.80
2021,04,18,11,48,18.70
2021,04,18,11,49,18.60
2021,04,18,11,50,18.60
2021,04,18,11,51,18.60
2021,04,18,11,52,18.60
2021,04,18,11,53,18.70
2021,04,18,11,54,18.80
2021,04,18,11,55,18.80
2021,04,18,11,56,18.80
2021,04,18,11,57,18.80
2021,04,18,11,58,18.70
2021,04,18,11,59,18.70
2021,04,18,12,00,18.60
2021,04,18,12,01,18.60
2021,04,18,12,02,18.60
2021,04,18,12,03,18.70
2021,04,18,12,04,18.80
2021,04,18,12,05,18.90
2021,04,18,12,06,18.80
2021,04,18,12,07,18.80
2021,04,18,12,08,18.80
2021,04,18,12,09,18.80
2021,04,18,12,10,18.90
2021,04,18,12,11,18.90
2021,04,18,12,12,19.00
2021,04,18,12,13,19.10
2021,04,18,12,14,19.10
2021,04,18,12,15,19.20
2021,04,18,12,16,19.20
2021,04,18,12,17,19.20
2021,04,18,12,18,19.30
2021,04,18,12,19,19.30
2021,04,18,12,20,19.30
2021,04,18,12,21,19.40
2021,04,18,12,22,19.30
2021,04,18,12,23,19.30
2021,04,18,12,24,19.20
2021,04,18,12,25,19.10
2021,04,18,12,26,19.10
2021,04,18,12,27,19.10
2021,04,18,12,28,19.10
2021,04,18,12,29,19.10
2021,04,18,12,30,19.00
2021,04,18,12,31,18.90
2021,04,18,12,32,18.80
2021,04,18,12,33,18.80
2021,04,18,12,34,18.80
2021,04,18,12,35,18.90
2021,04,18,12,36,19.00
2021,04,18,12,37,19.10
2021,04,18,12,38,19.20
2021,04,18,12,39,19.20
2021,04,18,12,40,19.10
2021,04,18,12,41,19.20
2021,04,18,12,42,19.20
2021,04,18,12,43,19.10
2021,04,18,12,44,19.00
2021,04,18,12,45,18.90
2021,04,18,12,46,18.90
2021,04,18,12,47,18.80
2021,04,18,12,48,18.80
2021,04,18,12,49,18.90
2021,04,18,12,50,18.90
2021,04,18,12,51,18.90
2021,04,18,12,52,18.90
2021,04,18,12,53,18.90
2021,04,18,12,54,19.00
2021,04,18,12,55,19.00
2021,04,18,12,56,19.10
2021,04,18,12,57,19.10
2021,04,18,12,58,19.20
2021,04,18,12,59,19.30
2021,04,18,13,00,19.30
2021,04,18,13,01,19.30
2021,04,18,13,02,19.20
2021,04,18,13,03,19.10
2021,04,18,13,04,19.10
2021,04,18,13,05,19.10
2021,04,18,13,06,19.30
2021,04,18,13,07,19.30
2021,04,18,13,08,19.30
2021,04,18,13,09,19.30
2021,04,18,13,10,19.30
2021,04,18,13,11,19.30
2021,04,18,13,12,19.30
2021,04,18,13,13,19.30
2021,04,18,13,14,19.30
2021,04,18,13,15,19.30
2021,04,18,13,16,19.20
2021,04,18,13,17,19.10
2021,04,18,13,18,19.10
2021,04,18,13,19,19.10
2021,04,18,13,20,19.00
2021,04,18,13,21,18.90
2021,04,18,13,22,18.90
2021,04,18,13,23,18.80
2021,04,18,13,24,18.90
2021,04,18,13,25,19.00
2021,04,18,13,26,19.10
2021,04,18,13,27,19.20
2021,04,18,13,28,19.30
2021,04,18,13,29,19.30
2021,04,18,13,30,19.40
2021,04,18,13,31,19.40
2021,04,18,13,32,19.50
2021,04,18,13,33,19.50
2021,04,18,13,34,19.50
2021,04,18,13,35,19.50
2021,04,18,13,36,19.40
2021,04,18,13,37,19.30
2021,04,18,13,38,19.30
2021,04,18,13,39,19.30
2021,04,18,13,40,19.30
2021,04,18,13,41,19.40
2021,04,18,13,42,19.40
2021,04,18,13,43,19.40
2021,04,18,13,44,19.30
2021,04,18,13,45,19.30
2021,04,18,13,46,19.30
2021,04,18,13,47,19.40
2021,04,18,13,48,19.30
2021,04,18,13,49,19.30
2021,04,18,13,50,19.30
2021,04,18,13,51,19.40
2021,04,18,13,52,19.40
2021,04,18,13,53,19.50
2021,04,18,13,54,19.60
2021,04,18,13,55,19.70
2021,04,18,13,56,19.80
2021,04,18,13,57,19.90
2021,04,18,13,58,20.00
2021,04,18,13,59,20.10
2021,04,18,14,00,20.10
2021,04,18,14,01,19.90
2021,04,18,14,02,19.70
2021,04,18,14,03,19.70
2021,04,18,14,04,19.60
2021,04,18,14,05,19.50
2021,04,18,14,06,19.50
2021,04,18,14,07,19.50
2021,04,18,14,08,19.50
2021,04,18,14,09,19.50
2021,04,18,14,10,19.50
2021,04,18,14,11,19.60
2021,04,18,14,12,19.60
2021,04,18,14,13,19.60
2021,04,18,14,14,19.70
2021,04,18,14,15,19.80
2021,04,18,14,16,19.90
2021,04,18,14,17,20.00
2021,04,18,14,18,19.90
2021,04,18,14,19,19.90
2021,04,18,14,20,19.90
2021,04,18,14,21,20.00
2021,04,18,14,22,20.00
2021,04,18,14,23,19.80
2021,04,18,14,24,19.80
2021,04,18,14,25,19.60
2021,04,18,14,26,19.50
2021,04,18,14,27,19.40
2021,04,18,14,28,19.40
2021,04,18,14,29,19.40
2021,04,18,14,30,19.30
2021,04,18,14,31,19.30
2021,04,18,14,32,19.30
2021,04,18,14,33,19.10
2021,04,18,14,34,19.10
2021,04,18,14,35,19.00
2021,04,18,14,36,19.00
2021,04,18,14,37,18.90
2021,04,18,14,38,18.80
2021,04,18,14,39,18.80
2021,04,18,14,40,18.80
2021,04,18,14,41,18.80
2021,04,18,14,42,18.90
2021,04,18,14,43,18.90
2021,04,18,14,44,18.80
2021,04,18,14,45,18.80
2021,04,18,14,46,18.90
2021,04,18,14,47,18.90
2021,04,18,14,48,18.90
2021,04,18,14,49,18.90
2021,04,18,14,50,18.90
2021,04,18,14,51,18.90
2021,04,18,14,52,18.80
2021,04,18,14,53,18.80
2021,04,18,14,54,18.80
2021,04,18,14,55,18.80
2021,04,18,14,56,18.80
2021,04,18,14,57,18.90
2021,04,18,14,58,18.90
2021,04,18,14,59,19.00
2021,04,18,15,00,19.00
2021,04,18,15,01,19.00
2021,04,18,15,02,19.10
2021,04,18,15,03,19.30
2021,04,18,15,04,19.30
2021,04,18,15,05,19.30
2021,04,18,15,06,19.40
2021,04,18,15,07,19.50
2021,04,18,15,08,19.60
2021,04,18,15,09,19.70
2021,04,18,15,10,19.70
2021,04,18,15,11,19.70
2021,04,18,15,12,19.80
2021,04,18,15,13,19.80
2021,04,18,15,14,20.00
2021,04,18,15,15,20.00
2021,04,18,15,16,19.90
2021,04,18,15,17,19.90
2021,04,18,15,18,20.00
2021,04,18,15,19,20.20
2021,04,18,15,20,20.30
2021,04,18,15,21,20.30
2021,04,18,15,22,20.30
2021,04,18,15,23,20.40
2021,04,18,15,24,20.40
2021,04,18,15,25,20.30
2021,04,18,15,26,20.40
2021,04,18,15,27,20.50
2021,04,18,15,28,20.50
2021,04,18,15,29,20.60
2021,04,18,15,30,20.60
2021,04,18,15,31,20.50
2021,04,18,15,32,20.40
2021,04,18,15,33,20.40
2021,04,18,15,34,20.40
2021,04,18,15,35,20.50
2021,04,18,15,36,20.40
2021,04,18,15,37,20.40
2021,04,18,15,38,20.50
2021,04,18,15,39,20.60
2021,04,18,15,40,20.80
2021,04,18,15,41,20.90
2021,04,18,15,42,20.90
2021,04,18,15,43,21.00
2021,04,18,15,44,20.90
2021,04,18,15,45,21.00
2021,04,18,15,46,21.10
2021,04,18,15,47,21.10
2021,04,18,15,48,21.00
2021,04,18,15,49,20.90
2021,04,18,15,50,20.80
2021,04,18,15,51,20.70
2021,04,18,15,52,20.70
2021,04,18,15,53,20.70
2021,04,18,15,54,20.70
2021,04,18,15,55,20.70
2021,04,18,15,56,20.70
2021,04,18,15,57,20.70
2021,04,18,15,58,20.70
2021,04,18,15,59,20.70
2021,04,18,16,00,20.70
2021,04,18,16,01,20.70
2021,04,18,16,02,20.70
2021,04,18,16,03,20.80
2021,04,18,16,04,20.80
2021,04,18,16,05,20.90
2021,04,18,16,06,20.90
2021,04,18,16,07,20.90
2021,04,18,16,08,20.90
2021,04,18,16,09,20.90
2021,04,18,16,10,20.90
2021,04,18,16,11,20.90
2021,04,18,16,12,20.90
2021,04,18,16,13,21.00
2021,04,18,16,14,21.00
2021,04,18,16,15,21.10
2021,04,18,16,16,21.10
2021,04,18,16,17,21.20
2021,04,18,16,18,21.30
2021,04,18,16,19,21.30
2021,04,18,16,20,21.40
2021,04,18,16,21,21.50
2021,04,18,16,22,21.50
2021,04,18,16,23,21.60
2021,04,18,16,24,21.60
2021,04,18,16,25,21.70
2021,04,18,16,26,21.70
2021,04,18,16,27,21.80
2021,04,18,16,28,21.80
2021,04,18,16,29,21.90
2021,04,18,16,30,21.90
2021,04,18,16,31,21.90
2021,04,18,16,32,21.90
2021,04,18,16,33,22.00
2021,04,18,16,34,22.00
2021,04,18,16,35,21.90
2021,04,18,16,36,21.90
2021,04,18,16,37,21.90
2021,04,18,16,38,21.80
2021,04,18,16,39,21.80
2021,04,18,16,40,21.80
2021,04,18,16,41,21.80
2021,04,18,16,42,21.90
2021,04,18,16,43,22.00
2021,04,18,16,44,22.00
2021,04,18,16,45,22.00
2021,04,18,16,46,22.00
2021,04,18,16,47,22.00
2021,04,18,16,48,22.10
2021,04,18,16,49,22.10
2021,04,18,16,50,22.10
2021,04,18,16,51,22.20
2021,04,18,16,52,22.10
2021,04,18,16,53,22.10
2021,04,18,16,54,22.00
2021,04,18,16,55,21.90
2021,04,18,16,56,22.00
2021,04,18,16,57,22.10
2021,04,18,16,58,22.10
2021,04,18,16,59,22.30
2021,04,18,17,00,22.40
2021,04,18,17,01,22.50
2021,04,18,17,02,22.50
2021,04,18,17,03,22.60
2021,04,18,17,04,22.70
2021,04,18,17,05,22.70
2021,04,18,17,06,22.70
2021,04,18,17,07,22.60
2021,04,18,17,08,22.60
2021,04,18,17,09,22.60
2021,04,18,17,10,22.50
2021,04,18,17,11,22.50
2021,04,18,17,12,22.60
2021,04,18,17,13,22.70
2021,04,18,17,14,22.70
2021,04,18,17,15,22.60
2021,04,18,17,16,22.60
2021,04,18,17,17,22.60
2021,04,18,17,18,22.50
2021,04,18,17,19,22.40
2021,04,18,17,20,22.40
2021,04,18,17,21,22.50
2021,04,18,17,22,22.50
2021,04,18,17,23,22.40
2021,04,18,17,24,22.20